Hourly Data Report for July 18, 2017

PITT MEADOWS CS
BRITISH COLUMBIA

49°12'29.964" N
122°41'24.076" W
5.00 m
1106178
71775
WMM

Download Data

Hourly Data (July 2017)
Hourly Data Report for July 18, 2017
TIME
LST
Temp Definition
°C
Dew Point Definition
°C
Rel Hum Definition
%
Precip. Amount Definition
mm

Wind Dir Definition
10's deg

Wind Spd Definition
km/h
Visibility Definition
km
Stn Press Definition
kPa
Hmdx Definition


Wind Chill Definition


Weather Definition


00:00 14.4 11.4 82 0.0   0   101.60     LegendNANA
01:00 13.2 10.8 85 0.0 0 1   101.60     LegendNANA
02:00 12.4 10.7 89 0.0   0   101.61     LegendNANA
03:00 12.7 10.7 88 0.0   0   101.61     LegendNANA
04:00 12.0 10.1 89 0.0   0   101.63     LegendNANA
05:00 11.7 9.9 89 0.0 0 1   101.64     LegendNANA
06:00 14.3 11.3 82 0.0 0 1   101.66     LegendNANA
07:00 16.9 11.4 70 0.0 7 1   101.68     LegendNANA
08:00 18.4 10.2 59 0.0 0 1   101.69     LegendNANA
09:00 20.1 9.9 52 0.0 28 3   101.65     LegendNANA
10:00 21.8 9.4 45 0.0 21 5   101.62     LegendNANA
11:00 23.7 8.6 38 0.0 20 6   101.59     LegendNANA
12:00 24.7 9.9 39 0.0 26 7   101.55 26   LegendNANA
13:00 26.6 8.0 31 0.0 27 10   101.51 27   LegendNANA
14:00 26.8 7.6 30 0.0 22 8   101.48 27   LegendNANA
15:00 27.6 9.7 33 0.0 27 12   101.44 29   LegendNANA
16:00 27.0 8.8 32 0.0 23 7   101.42 28   LegendNANA
17:00 27.2 7.4 29 0.0 23 8   101.38 27   LegendNANA
18:00 26.0 9.0 34 0.0 19 8   101.37 27   LegendNANA
19:00 24.1 9.5 40 0.0 20 6   101.42 25   LegendNANA
20:00 22.2 7.8 40 0.0 15 2   101.45     LegendNANA
21:00 19.4 9.3 52 0.0 10 3   101.49     LegendNANA
22:00 18.0 9.9 59 0.0 12 2   101.52     LegendNANA
23:00 17.0 10.6 66 0.0 9 3   101.57     LegendNANA

Notes on Data Quality.

Legend

  • E = Estimated
  • M = Missing
  • NA = Not Available*
  • [empty] = Indicates an unobserved value
Date modified: